User: anonymous
Location: Maiden
(35.5760°N, 81.2120°W)
Time: 10:30:43
(UTC-04:00)
Language:

Cosmos 2151 - Orbit

View from above orbital plane
View from above orbital plane
View from above satellite
View from above satellite

Ground track
Ground track

The orbit data is extracted from the following two-line orbital elements,

1 21422U 91042A   14108.44817278  .00001998  00000-0  20441-3 0  8701
2 21422 082.5006 265.1241 0014999 184.7299 175.3780 14.89996672236268
Epoch (UTC): 18 April 2014 10:45:22
Eccentricity: 0.0014999
inclination: 82.5006°
perigee height: 587 km
apogee height: 608 km
right ascension of ascending node: 265.1241°
argument of perigee: 184.7299°
revolutions per day: 14.89996672
mean anomaly at epoch: 175.3780°
orbit number at epoch: 23626

The dashed part of the orbit path shows where the satellite is in the earth's shadow,  

DLR